ITY1056 LIRA-LIRN

Flight info

Callsign ITY1056
Flight time N/A
Altitude 19000
Route RATIR7ZXRIFFI6U/15 RIFFI M729 PNZ
Aircraft A20N/M-SDE2E3FGHIRWXY/LB1

Departure

Time 2026-05-08 16:50
Airport Ciampino–G. B. Pastine International Airport (LIRA)

Arrival

Time N/A
Airport Naples International Airport (LIRN)
Time Latitude Longitude Altitude Speed Heading
2026-05-08 16:10 41.80051 12.59085 406 ft 0 kts 286°
2026-05-08 16:39 41.80047 12.59104 406 ft 4 kts 265°
2026-05-08 16:39 41.80056 12.59136 403 ft 4 kts 245°
2026-05-08 16:40 41.80061 12.59163 405 ft 4 kts 274°
2026-05-08 16:40 41.80055 12.59196 401 ft 4 kts 314°
2026-05-08 16:40 41.80046 12.59207 405 ft 1 kts 332°
2026-05-08 16:40 41.80067 12.59191 405 ft 4 kts 332°
2026-05-08 16:41 41.80073 12.59187 401 ft 1 kts 332°
2026-05-08 16:45 41.80074 12.59187 401 ft 1 kts 332°
2026-05-08 16:46 41.80152 12.59132 406 ft 19 kts 333°
2026-05-08 16:46 41.80287 12.59043 406 ft 24 kts 333°
2026-05-08 16:46 41.80439 12.58933 406 ft 26 kts 333°
2026-05-08 16:46 41.80603 12.58820 406 ft 17 kts 333°
2026-05-08 16:47 41.80646 12.58791 407 ft 8 kts 334°
2026-05-08 16:47 41.80712 12.58766 407 ft 6 kts 17°
2026-05-08 16:47 41.80713 12.58767 407 ft 0 kts 19°
2026-05-08 16:48 41.80715 12.58767 407 ft 1 kts 19°
2026-05-08 16:48 41.80757 12.58831 413 ft 11 kts 71°
2026-05-08 16:48 41.80759 12.58837 414 ft 0 kts 70°
2026-05-08 16:49 41.80751 12.58912 415 ft 15 kts 129°
2026-05-08 16:49 41.80512 12.59095 408 ft 76 kts 153°
2026-05-08 16:49 41.79828 12.59576 413 ft 151 kts 150°
2026-05-08 16:49 41.78774 12.60253 1009 ft 180 kts 161°
2026-05-08 16:50 41.77453 12.60403 1897 ft 202 kts 187°
2026-05-08 16:50 41.76013 12.60001 2826 ft 223 kts 201°
2026-05-08 16:50 41.74666 12.58829 3861 ft 241 kts 224°
2026-05-08 16:50 41.73491 12.57124 5041 ft 256 kts 231°
2026-05-08 16:51 41.72425 12.55160 6260 ft 267 kts 234°
2026-05-08 16:51 41.71038 12.53467 7369 ft 274 kts 207°
2026-05-08 16:51 41.69461 12.52092 8773 ft 269 kts 227°
2026-05-08 16:51 41.68428 12.50049 10317 ft 261 kts 238°
2026-05-08 16:52 41.67456 12.48053 11758 ft 252 kts 227°
2026-05-08 16:52 41.66079 12.46698 13188 ft 244 kts 204°
2026-05-08 16:52 41.64451 12.46287 14516 ft 237 kts 179°
2026-05-08 16:52 41.62842 12.46438 15723 ft 229 kts 179°
2026-05-08 16:53 41.59324 12.47121 16721 ft 280 kts 175°
2026-05-08 16:53 41.57341 12.47507 17272 ft 301 kts 174°
2026-05-08 16:53 41.55211 12.48073 17925 ft 321 kts 174°
2026-05-08 16:54 41.52870 12.48511 17820 ft 362 kts 178°
2026-05-08 16:54 41.50306 12.48729 17272 ft 369 kts 181°
2026-05-08 16:54 41.47752 12.48874 16852 ft 362 kts 180°
2026-05-08 16:54 41.45310 12.49128 16688 ft 349 kts 173°
2026-05-08 16:55 41.43116 12.50217 16971 ft 327 kts 156°
2026-05-08 16:55 41.41121 12.51481 16995 ft 305 kts 167°
2026-05-08 16:55 41.39120 12.51906 17059 ft 279 kts 184°
2026-05-08 16:55 41.37265 12.51768 17178 ft 257 kts 189°
2026-05-08 16:56 41.35519 12.51555 17030 ft 248 kts 183°
2026-05-08 16:56 41.33852 12.51937 16993 ft 236 kts 171°
2026-05-08 16:56 41.32315 12.52448 16995 ft 219 kts 171°
2026-05-08 16:56 41.30930 12.52927 17833 ft 179 kts 171°
2026-05-08 16:57 41.29783 12.53362 18225 ft 188 kts 172°
2026-05-08 16:57 41.28344 12.53782 16960 ft 232 kts 175°
2026-05-08 16:57 41.26717 12.54173 16489 ft 237 kts 173°
2026-05-08 16:57 41.25029 12.54618 16906 ft 262 kts 172°
2026-05-08 16:58 41.23128 12.55276 17056 ft 301 kts 166°
2026-05-08 16:58 41.21054 12.56307 17278 ft 335 kts 160°